����������;��������(kWh)
2015-07-13 00:00;98,15
2015-07-13 00:15;90,65
2015-07-13 00:30;80,35
2015-07-13 00:45;79,55
2015-07-13 01:00;83,15
2015-07-13 01:15;83,35
2015-07-13 01:30;80,65
2015-07-13 01:45;79,3
2015-07-13 02:00;79,2
2015-07-13 02:15;82,85
2015-07-13 02:30;85,7
2015-07-13 02:45;80,75
2015-07-13 03:00;80
2015-07-13 03:15;80,95
2015-07-13 03:30;79,65
2015-07-13 03:45;87,45
2015-07-13 04:00;78,45
2015-07-13 04:15;81,25
2015-07-13 04:30;79,5
2015-07-13 04:45;80,2
2015-07-13 05:00;91,05
2015-07-13 05:15;84,9
2015-07-13 05:30;87,25
2015-07-13 05:45;87,2
2015-07-13 06:00;84,45
2015-07-13 06:15;82,75
2015-07-13 06:30;84,85
2015-07-13 06:45;83,15
2015-07-13 07:00;85,65
2015-07-13 07:15;83,85
2015-07-13 07:30;99,75
2015-07-13 07:45;139,85
2015-07-13 08:00;192,8
2015-07-13 08:15;184,2
2015-07-13 08:30;173,45
2015-07-13 08:45;138,55
2015-07-13 09:00;156,45
2015-07-13 09:15;152,95
2015-07-13 09:30;159,05
2015-07-13 09:45;175,25
2015-07-13 10:00;192,75
2015-07-13 10:15;186,9
2015-07-13 10:30;192,85
2015-07-13 10:45;205,9
2015-07-13 11:00;221,5
2015-07-13 11:15;208,75
2015-07-13 11:30;215,65
2015-07-13 11:45;216,2
2015-07-13 12:00;224,65
2015-07-13 12:15;223,5
2015-07-13 12:30;222,85
2015-07-13 12:45;211,6
2015-07-13 13:00;223,6
2015-07-13 13:15;224,2
2015-07-13 13:30;229,65
2015-07-13 13:45;222,8
2015-07-13 14:00;227,5
2015-07-13 14:15;214,15
2015-07-13 14:30;211,45
2015-07-13 14:45;214,1
2015-07-13 15:00;207,15
2015-07-13 15:15;185,9
2015-07-13 15:30;183,3
2015-07-13 15:45;176,95
2015-07-13 16:00;176,95
2015-07-13 16:15;153,95
2015-07-13 16:30;151,15
2015-07-13 16:45;148,1
2015-07-13 17:00;154,65
2015-07-13 17:15;142,05
2015-07-13 17:30;136,05
2015-07-13 17:45;132
2015-07-13 18:00;136,25
2015-07-13 18:15;132,75
2015-07-13 18:30;120,7
2015-07-13 18:45;116,7
2015-07-13 19:00;111,25
2015-07-13 19:15;119,1
2015-07-13 19:30;112,7
2015-07-13 19:45;107,7
2015-07-13 20:00;105,6
2015-07-13 20:15;100,4
2015-07-13 20:30;104,55
2015-07-13 20:45;91,15
2015-07-13 21:00;88,15
2015-07-13 21:15;91,05
2015-07-13 21:30;91,7
2015-07-13 21:45;93,75
2015-07-13 22:00;93,75
2015-07-13 22:15;87
2015-07-13 22:30;85,9
2015-07-13 22:45;85,9
2015-07-13 23:00;88,75
2015-07-13 23:15;88,05
2015-07-13 23:30;85,25
2015-07-13 23:45;87,45
2015-07-14 00:00;91,5
2015-07-14 00:15;81
2015-07-14 00:30;90
2015-07-14 00:45;80,35
2015-07-14 01:00;79,6
2015-07-14 01:15;81,6
2015-07-14 01:30;81,3
2015-07-14 01:45;82,45
2015-07-14 02:00;89,5
2015-07-14 02:15;87,75
2015-07-14 02:30;88,25
2015-07-14 02:45;84,2
2015-07-14 03:00;79,55
2015-07-14 03:15;88,35
2015-07-14 03:30;80,15
2015-07-14 03:45;83,85
2015-07-14 04:00;88,2
2015-07-14 04:15;87,3
2015-07-14 04:30;88,7
2015-07-14 04:45;89,9
2015-07-14 05:00;87,7
2015-07-14 05:15;87,2
2015-07-14 05:30;90,8
2015-07-14 05:45;90,3
2015-07-14 06:00;92
2015-07-14 06:15;86,3
2015-07-14 06:30;83,3
2015-07-14 06:45;73,1
2015-07-14 07:00;80,9
2015-07-14 07:15;81,8
2015-07-14 07:30;86
2015-07-14 07:45;130,8
2015-07-14 08:00;137,1
2015-07-14 08:15;127,8
2015-07-14 08:30;129,7
2015-07-14 08:45;139
2015-07-14 09:00;138,8
2015-07-14 09:15;144,7
2015-07-14 09:30;149
2015-07-14 09:45;163,05
2015-07-14 10:00;164,95
2015-07-14 10:15;172,15
2015-07-14 10:30;182,75
2015-07-14 10:45;193,3
2015-07-14 11:00;189,05
2015-07-14 11:15;195,75
2015-07-14 11:30;205,2
2015-07-14 11:45;214,15
2015-07-14 12:00;206,05
2015-07-14 12:15;200,15
2015-07-14 12:30;205,15
2015-07-14 12:45;212,2
2015-07-14 13:00;203,8
2015-07-14 13:15;209,8
2015-07-14 13:30;210
2015-07-14 13:45;209,4
2015-07-14 14:00;207,55
2015-07-14 14:15;263,35
2015-07-14 14:30;268,5
2015-07-14 14:45;244
2015-07-14 15:00;203,7
2015-07-14 15:15;209,4
2015-07-14 15:30;199,9
2015-07-14 15:45;177,75
2015-07-14 16:00;171,85
2015-07-14 16:15;150,8
2015-07-14 16:30;158,25
2015-07-14 16:45;153,6
2015-07-14 17:00;139,7
2015-07-14 17:15;143,75
2015-07-14 17:30;135,9
2015-07-14 17:45;129,5
2015-07-14 18:00;129,8
2015-07-14 18:15;124,8
2015-07-14 18:30;128,55
2015-07-14 18:45;117,45
2015-07-14 19:00;114
2015-07-14 19:15;122,2
2015-07-14 19:30;117,7
2015-07-14 19:45;106,6
2015-07-14 20:00;105,9
2015-07-14 20:15;99,7
2015-07-14 20:30;104,7
2015-07-14 20:45;88,25
2015-07-14 21:00;90,05
2015-07-14 21:15;94,05
2015-07-14 21:30;94,45
2015-07-14 21:45;96,65
2015-07-14 22:00;99,85
2015-07-14 22:15;97,25
2015-07-14 22:30;96,35
2015-07-14 22:45;96,8
2015-07-14 23:00;91
2015-07-14 23:15;94,3
2015-07-14 23:30;88,8
2015-07-14 23:45;89,5
2015-07-15 00:00;102,4
2015-07-15 00:15;84
2015-07-15 00:30;84,65
2015-07-15 00:45;82,55
2015-07-15 01:00;84,6
2015-07-15 01:15;89,8
2015-07-15 01:30;82,9
2015-07-15 01:45;82,35
2015-07-15 02:00;82,95
2015-07-15 02:15;82,1
2015-07-15 02:30;85,85
2015-07-15 02:45;84,85
2015-07-15 03:00;79,5
2015-07-15 03:15;81,1
2015-07-15 03:30;82,6
2015-07-15 03:45;79,4
2015-07-15 04:00;89
2015-07-15 04:15;80,7
2015-07-15 04:30;93,1
2015-07-15 04:45;90,15
2015-07-15 05:00;87,85
2015-07-15 05:15;92,2
2015-07-15 05:30;91,8
2015-07-15 05:45;90,85
2015-07-15 06:00;90,25
2015-07-15 06:15;89,45
2015-07-15 06:30;82,75
2015-07-15 06:45;82,6
2015-07-15 07:00;79,85
2015-07-15 07:15;83,9
2015-07-15 07:30;94,75
2015-07-15 07:45;134,95
2015-07-15 08:00;198,05
2015-07-15 08:15;180,7
2015-07-15 08:30;160,25
2015-07-15 08:45;152,95
2015-07-15 09:00;154,85
2015-07-15 09:15;166,55
2015-07-15 09:30;160,7
2015-07-15 09:45;167,95
2015-07-15 10:00;173,9
2015-07-15 10:15;186,7
2015-07-15 10:30;197,1
2015-07-15 10:45;189,9
2015-07-15 11:00;199,35
2015-07-15 11:15;218,35
2015-07-15 11:30;212,75
2015-07-15 11:45;207,7
2015-07-15 12:00;234,4
2015-07-15 12:15;220,8
2015-07-15 12:30;217,4
2015-07-15 12:45;239,5
2015-07-15 13:00;226,2
2015-07-15 13:15;217,5
2015-07-15 13:30;239,45
2015-07-15 13:45;237,55
2015-07-15 14:00;224,8
2015-07-15 14:15;213,45
2015-07-15 14:30;221,05
2015-07-15 14:45;216,7
2015-07-15 15:00;209,65
2015-07-15 15:15;206,2
2015-07-15 15:30;195,4
2015-07-15 15:45;181,3
2015-07-15 16:00;168,35
2015-07-15 16:15;160,7
2015-07-15 16:30;142,5
2015-07-15 16:45;136,05
2015-07-15 17:00;139,05
2015-07-15 17:15;144,2
2015-07-15 17:30;132,1
2015-07-15 17:45;127,75
2015-07-15 18:00;130,35
2015-07-15 18:15;128,55
2015-07-15 18:30;115,25
2015-07-15 18:45;113
2015-07-15 19:00;115,5
2015-07-15 19:15;115,9
2015-07-15 19:30;106,2
2015-07-15 19:45;100,9
2015-07-15 20:00;101,6
2015-07-15 20:15;107,5
2015-07-15 20:30;97,1
2015-07-15 20:45;92,5
2015-07-15 21:00;95,45
2015-07-15 21:15;104,35
2015-07-15 21:30;96,6
2015-07-15 21:45;90,1
2015-07-15 22:00;89,75
2015-07-15 22:15;95,65
2015-07-15 22:30;86,8
2015-07-15 22:45;89,1
2015-07-15 23:00;88,7
2015-07-15 23:15;91,05
2015-07-15 23:30;92,3
2015-07-15 23:45;85,2
2015-07-16 00:00;96,55
2015-07-16 00:15;84,65
2015-07-16 00:30;91,2
2015-07-16 00:45;87,8
2015-07-16 01:00;81,95
2015-07-16 01:15;80,9
2015-07-16 01:30;84,7
2015-07-16 01:45;87,4
2015-07-16 02:00;82,65
2015-07-16 02:15;83,65
2015-07-16 02:30;82,25
2015-07-16 02:45;80,45
2015-07-16 03:00;85,65
2015-07-16 03:15;84,2
2015-07-16 03:30;82,05
2015-07-16 03:45;82,55
2015-07-16 04:00;81,65
2015-07-16 04:15;79,6
2015-07-16 04:30;90,85
2015-07-16 04:45;83
2015-07-16 05:00;97,25
2015-07-16 05:15;95,4
2015-07-16 05:30;93,35
2015-07-16 05:45;90,55
2015-07-16 06:00;87,9
2015-07-16 06:15;87,4
2015-07-16 06:30;82,8
2015-07-16 06:45;76,25
2015-07-16 07:00;80,8
2015-07-16 07:15;85,7
2015-07-16 07:30;90,65
2015-07-16 07:45;136,8
2015-07-16 08:00;190,2
2015-07-16 08:15;185,75
2015-07-16 08:30;167,6
2015-07-16 08:45;151,85
2015-07-16 09:00;150,8
2015-07-16 09:15;158,9
2015-07-16 09:30;168,6
2015-07-16 09:45;169,05
2015-07-16 10:00;177,45
2015-07-16 10:15;180,65
2015-07-16 10:30;200,35
2015-07-16 10:45;200,5
2015-07-16 11:00;193,3
2015-07-16 11:15;211,95
2015-07-16 11:30;210,35
2015-07-16 11:45;212,4
2015-07-16 12:00;222,95
2015-07-16 12:15;223,65
2015-07-16 12:30;214,25
2015-07-16 12:45;224,75
2015-07-16 13:00;222,6
2015-07-16 13:15;223,7
2015-07-16 13:30;221
2015-07-16 13:45;206,9
2015-07-16 14:00;221,05
2015-07-16 14:15;212,2
2015-07-16 14:30;204,5
2015-07-16 14:45;211,85
2015-07-16 15:00;204,15
2015-07-16 15:15;198
2015-07-16 15:30;184,75
2015-07-16 15:45;176,65
2015-07-16 16:00;167,05
2015-07-16 16:15;154,95
2015-07-16 16:30;138,8
2015-07-16 16:45;146,65
2015-07-16 17:00;132,4
2015-07-16 17:15;130,4
2015-07-16 17:30;130,2
2015-07-16 17:45;132,85
2015-07-16 18:00;129,3
2015-07-16 18:15;125,65
2015-07-16 18:30;123,2
2015-07-16 18:45;124,95
2015-07-16 19:00;110,55
2015-07-16 19:15;115,5
2015-07-16 19:30;96,8
2015-07-16 19:45;104
2015-07-16 20:00;98,05
2015-07-16 20:15;94,75
2015-07-16 20:30;92,8
2015-07-16 20:45;90,85
2015-07-16 21:00;100,05
2015-07-16 21:15;93,85
2015-07-16 21:30;92,75
2015-07-16 21:45;91,55
2015-07-16 22:00;90,6
2015-07-16 22:15;96,2
2015-07-16 22:30;91,75
2015-07-16 22:45;87,3
2015-07-16 23:00;90,2
2015-07-16 23:15;95,55
2015-07-16 23:30;103,1
2015-07-16 23:45;97,85
2015-07-17 00:00;97,4
2015-07-17 00:15;80,05
2015-07-17 00:30;87,3
2015-07-17 00:45;87,05
2015-07-17 01:00;82,1
2015-07-17 01:15;82,8
2015-07-17 01:30;82,15
2015-07-17 01:45;81,35
2015-07-17 02:00;84,5
2015-07-17 02:15;82,9
2015-07-17 02:30;78,75
2015-07-17 02:45;82,65
2015-07-17 03:00;85,6
2015-07-17 03:15;85,45
2015-07-17 03:30;79,35
2015-07-17 03:45;83,3
2015-07-17 04:00;80,3
2015-07-17 04:15;82,1
2015-07-17 04:30;84,45
2015-07-17 04:45;81,8
2015-07-17 05:00;85,25
2015-07-17 05:15;85
2015-07-17 05:30;97,35
2015-07-17 05:45;102,25
2015-07-17 06:00;92,9
2015-07-17 06:15;86,4
2015-07-17 06:30;82,4
2015-07-17 06:45;75,8
2015-07-17 07:00;83
2015-07-17 07:15;76,7
2015-07-17 07:30;96,2
2015-07-17 07:45;105,15
2015-07-17 08:00;166,75
2015-07-17 08:15;171,5
2015-07-17 08:30;134,9
2015-07-17 08:45;142
2015-07-17 09:00;132,4
2015-07-17 09:15;137,2
2015-07-17 09:30;159,5
2015-07-17 09:45;145,75
2015-07-17 10:00;161,85
2015-07-17 10:15;170,9
2015-07-17 10:30;188
2015-07-17 10:45;186,55
2015-07-17 11:00;190,2
2015-07-17 11:15;185,05
2015-07-17 11:30;202,75
2015-07-17 11:45;202,95
2015-07-17 12:00;194
2015-07-17 12:15;212,45
2015-07-17 12:30;216,3
2015-07-17 12:45;201,85
2015-07-17 13:00;206,15
2015-07-17 13:15;217,8
2015-07-17 13:30;200,55
2015-07-17 13:45;219,55
2015-07-17 14:00;239,5
2015-07-17 14:15;218,65
2015-07-17 14:30;205,3
2015-07-17 14:45;194,65
2015-07-17 15:00;207,1
2015-07-17 15:15;185,6
2015-07-17 15:30;164,15
2015-07-17 15:45;150,85
2015-07-17 16:00;153,35
2015-07-17 16:15;139,3
2015-07-17 16:30;135,55
2015-07-17 16:45;130,55
2015-07-17 17:00;132,8
2015-07-17 17:15;126,95
2015-07-17 17:30;118,15
2015-07-17 17:45;118,1
2015-07-17 18:00;122,5
2015-07-17 18:15;118,75
2015-07-17 18:30;111,45
2015-07-17 18:45;109,8
2015-07-17 19:00;106
2015-07-17 19:15;117,3
2015-07-17 19:30;104,15
2015-07-17 19:45;105,4
2015-07-17 20:00;98,55
2015-07-17 20:15;98,75
2015-07-17 20:30;100,85
2015-07-17 20:45;87,9
2015-07-17 21:00;92,3
2015-07-17 21:15;95,6
2015-07-17 21:30;98,35
2015-07-17 21:45;102,25
2015-07-17 22:00;92,35
2015-07-17 22:15;86,55
2015-07-17 22:30;87
2015-07-17 22:45;88,3
2015-07-17 23:00;86,65
2015-07-17 23:15;85,6
2015-07-17 23:30;84,85
2015-07-17 23:45;86,55
2015-07-18 00:00;95,6
2015-07-18 00:15;84,9
2015-07-18 00:30;81,35
2015-07-18 00:45;80,8
2015-07-18 01:00;79,35
2015-07-18 01:15;83,6
2015-07-18 01:30;79
2015-07-18 01:45;79,35
2015-07-18 02:00;78,9
2015-07-18 02:15;77,65
2015-07-18 02:30;84,45
2015-07-18 02:45;81
2015-07-18 03:00;77,05
2015-07-18 03:15;79
2015-07-18 03:30;79,05
2015-07-18 03:45;79,95
2015-07-18 04:00;80,35
2015-07-18 04:15;78,55
2015-07-18 04:30;78,1
2015-07-18 04:45;76,45
2015-07-18 05:00;78,2
2015-07-18 05:15;82,2
2015-07-18 05:30;74,4
2015-07-18 05:45;74,7
2015-07-18 06:00;74,25
2015-07-18 06:15;72,5
2015-07-18 06:30;74,55
2015-07-18 06:45;69,6
2015-07-18 07:00;70,6
2015-07-18 07:15;70,45
2015-07-18 07:30;70,4
2015-07-18 07:45;96,6
2015-07-18 08:00;90,8
2015-07-18 08:15;84,4
2015-07-18 08:30;82,25
2015-07-18 08:45;83,9
2015-07-18 09:00;85,15
2015-07-18 09:15;83,45
2015-07-18 09:30;84,3
2015-07-18 09:45;90,2
2015-07-18 10:00;93
2015-07-18 10:15;92,25
2015-07-18 10:30;82,85
2015-07-18 10:45;83,25
2015-07-18 11:00;83,25
2015-07-18 11:15;87,1
2015-07-18 11:30;89,9
2015-07-18 11:45;83,8
2015-07-18 12:00;85
2015-07-18 12:15;83,35
2015-07-18 12:30;91,5
2015-07-18 12:45;90,25
2015-07-18 13:00;85,5
2015-07-18 13:15;86,65
2015-07-18 13:30;89,95
2015-07-18 13:45;92,55
2015-07-18 14:00;87,15
2015-07-18 14:15;87,55
2015-07-18 14:30;87,2
2015-07-18 14:45;100,05
2015-07-18 15:00;93,5
2015-07-18 15:15;91,1
2015-07-18 15:30;89,85
2015-07-18 15:45;92,95
2015-07-18 16:00;95,95
2015-07-18 16:15;92,2
2015-07-18 16:30;91,75
2015-07-18 16:45;92,2
2015-07-18 17:00;95,5
2015-07-18 17:15;94,4
2015-07-18 17:30;93,95
2015-07-18 17:45;94,8
2015-07-18 18:00;102,25
2015-07-18 18:15;103,6
2015-07-18 18:30;93,9
2015-07-18 18:45;86,9
2015-07-18 19:00;86,65
2015-07-18 19:15;97,75
2015-07-18 19:30;96,25
2015-07-18 19:45;87,65
2015-07-18 20:00;89,75
2015-07-18 20:15;95,55
2015-07-18 20:30;100
2015-07-18 20:45;92,5
2015-07-18 21:00;82,95
2015-07-18 21:15;86,35
2015-07-18 21:30;87,3
2015-07-18 21:45;89,1
2015-07-18 22:00;88,8
2015-07-18 22:15;87,6
2015-07-18 22:30;85,4
2015-07-18 22:45;82,55
2015-07-18 23:00;85,75
2015-07-18 23:15;89,75
2015-07-18 23:30;82,2
2015-07-18 23:45;84,55
2015-07-19 00:00;92,2
2015-07-19 00:15;80,9
2015-07-19 00:30;83,15
2015-07-19 00:45;79,6
2015-07-19 01:00;77,7
2015-07-19 01:15;78,35
2015-07-19 01:30;79,55
2015-07-19 01:45;82,2
2015-07-19 02:00;79,1
2015-07-19 02:15;79
2015-07-19 02:30;77,3
2015-07-19 02:45;78,7
2015-07-19 03:00;83,75
2015-07-19 03:15;79,4
2015-07-19 03:30;77,7
2015-07-19 03:45;77,4
2015-07-19 04:00;77,7
2015-07-19 04:15;85,7
2015-07-19 04:30;84,2
2015-07-19 04:45;85,25
2015-07-19 05:00;83,75
2015-07-19 05:15;78
2015-07-19 05:30;81,85
2015-07-19 05:45;78,4
2015-07-19 06:00;77,15
2015-07-19 06:15;73,8
2015-07-19 06:30;71,4
2015-07-19 06:45;72,8
2015-07-19 07:00;75,4
2015-07-19 07:15;71,9
2015-07-19 07:30;70,4
2015-07-19 07:45;68,8
2015-07-19 08:00;71,9
2015-07-19 08:15;77,35
2015-07-19 08:30;72,55
2015-07-19 08:45;73,1
2015-07-19 09:00;71,7
2015-07-19 09:15;73,45
2015-07-19 09:30;84,05
2015-07-19 09:45;74,75
2015-07-19 10:00;72,85
2015-07-19 10:15;73,8
2015-07-19 10:30;78,7
2015-07-19 10:45;79,55
2015-07-19 11:00;78,65
2015-07-19 11:15;75,95
2015-07-19 11:30;77,85
2015-07-19 11:45;83,4
2015-07-19 12:00;77,3
2015-07-19 12:15;78,55
2015-07-19 12:30;78,85
2015-07-19 12:45;84,1
2015-07-19 13:00;79,55
2015-07-19 13:15;82,05
2015-07-19 13:30;77,65
2015-07-19 13:45;79,3
2015-07-19 14:00;82,8
2015-07-19 14:15;79,45
2015-07-19 14:30;79,4
2015-07-19 14:45;78,05
2015-07-19 15:00;86,2
2015-07-19 15:15;76,5
2015-07-19 15:30;77,3
2015-07-19 15:45;76,95
2015-07-19 16:00;84,2
2015-07-19 16:15;77,4
2015-07-19 16:30;77,75
2015-07-19 16:45;78,6
2015-07-19 17:00;89,55
2015-07-19 17:15;83,9
2015-07-19 17:30;81,6
2015-07-19 17:45;83,3
2015-07-19 18:00;87,8
2015-07-19 18:15;86,8
2015-07-19 18:30;85,3
2015-07-19 18:45;81,65
2015-07-19 19:00;81,75
2015-07-19 19:15;91,8
2015-07-19 19:30;79,8
2015-07-19 19:45;82
2015-07-19 20:00;82,9
2015-07-19 20:15;81,5
2015-07-19 20:30;83,95
2015-07-19 20:45;80,75
2015-07-19 21:00;88,6
2015-07-19 21:15;90,8
2015-07-19 21:30;91,85
2015-07-19 21:45;86,9
2015-07-19 22:00;80
2015-07-19 22:15;81,35
2015-07-19 22:30;80,85
2015-07-19 22:45;83,55
2015-07-19 23:00;89,7
2015-07-19 23:15;83,75
2015-07-19 23:30;83,3
2015-07-19 23:45;86,3

